星链-1878 (STARLINK-1878 )

导读 | 星芒AI

STARLINK-1878 是 SpaceX 星链计划中的一颗低轨通信卫星,属于第 18 批部署的星链卫星群。该卫星于 2021 年 10 月发射,运行在约 550 公里的近地轨道,旨在为全球用户提供高速互联网服务。星链项目通过大规模部署卫星,构建全球覆盖的宽带网络,尤其服务于偏远地区。STARLINK-1878 采用先进推进和通信技术,具备自动避碰功能,有助于提升太空通信的稳定性和效率。

基本信息
目录编号:
47163
目录名称:
STARLINK-1878
国际标识:
2020-088AT
轨道中心:
EARTH
卫星名称:
星链-1878
卫星全名:
星链-1878 (STARLINK-1878 )
卫星状态:
已陨落 最后检测时间 2025-01-23
发射日期:
2020-11-25 UTC
国别 :
美国 (US)
星等 :
--
轨道信息
数据来源 国际轨道数据
星历时间: 2025-01-23T21:56:28+0800
轨道信息已过期327天
半长轴: 6538.207km
偏心率: 0.0005271
轨道倾角: 53.019°
近地点辐角 187.420°
升交点赤经 321.561°
平近点角 328.666°
近地点: 156.625km
远地点: 163.519km
周期: 87.690分钟
每日圈数: 16.421575
详细信息
固有亮度:
5
最大亮度:
2.5
卫星平台:
Starlink V1.0
覆盖范围:
全球
运营商:
太空探索技术公司
运营商所在国:
美国
制造商(研发单位):
太空探索技术公司
制造商所在国:
美国
使用方式:
暂无
卫星简介
星链(Starlink)计划是由太空探索技术公司(SpaceX)提出的一个巨型低轨卫星互联网星座项目,计划在2019年至2024年间在太空搭建由约1.2万颗卫星组成的“星链”网络,其中1584颗将部署在地球上空550千米处的近地轨道,并从2020年开始工作。该卫星仍在工作。